Weather History for KCWA - October, 2013

Change the Weather History Date:

Monday, October 7, 2013

  Actual Average Record
Temperature  
Mean Temperature 50 °F -  
Max Temperature 60 °F 58 °F 82 °F (2007)
Min Temperature 39 °F 36 °F 21 °F (2001)
Degree Days  
Heating Degree Days 14    
Moisture  
Dew Point 43 °F    
Average Humidity 86    
Maximum Humidity 100    
Minimum Humidity 45    
Precipitation  
Precipitation 0.00 in - - ()
Sea Level Pressure  
Sea Level Pressure 29.86 in    
Wind  
Wind Speed 7 mph (WNW)    
Max Wind Speed 14 mph    
Max Gust Speed 22 mph    
Visibility 10 miles    
Events Rain    
Averages and records for this station are not official NWS values.
T = Trace of Precipitation, MM = Missing Value Source: NWS Daily Summary

Daily Weather History Graph

Daily Weather History Graph

Search for Another Location

Airport or City:

Trip Planner

Search our weather history database for the weather conditions in past years. The results will help you decide how hot, cold, wet, or windy it might be!

Date:

Astronomy

Oct. 07, 2013 Rise Set
Actual Time 7:04 AM CDT 6:27 PM CDT
Civil Twilight 6:35 AM CDT 6:56 PM CDT
Nautical Twilight 6:01 AM CDT 7:30 PM CDT
Astronomical Twilight 5:27 AM CDT 8:04 PM CDT
Moon 10:02 AM CDT (10/7) 8:04 PM CDT (10/7)
Length of Visible Light 12h 21m
Length of Day
11h 23m
Waxing Crescent, 9% of the Moon is Illuminated
Oct 7
Waxing Crescent
Oct 11
First Quarter
Oct 18
Full
Oct 26
Last Quarter
Nov 3
New

Hourly Weather History & Observations

Time (CDT) Temp. Windchill Dew Point Humidity Pressure Visibility Wind Dir Wind Speed Gust Speed Precip Events Conditions
12:15 AM 46.4 °F 44.3 °F 44.6 °F 93% 29.70 in 10.0 mi WNW 4.6 mph - N/A   Overcast
12:35 AM 48.2 °F - 46.4 °F 93% 29.70 in 10.0 mi WNW 8.1 mph - N/A   Overcast
12:55 AM 48.2 °F - 46.4 °F 93% 29.70 in 10.0 mi NW 6.9 mph - N/A   Overcast
1:15 AM 48.2 °F - 46.4 °F 93% 29.71 in 10.0 mi NW 5.8 mph - N/A Rain Light Rain
1:35 AM 48.2 °F - 46.4 °F 93% 29.71 in 7.0 mi WNW 8.1 mph - N/A   Drizzle
1:55 AM 46.4 °F 41.5 °F 46.4 °F 100% 29.72 in 7.0 mi NW 10.4 mph 19.6 mph N/A Rain Light Rain
2:15 AM 46.4 °F 42.4 °F 46.4 °F 100% 29.72 in 10.0 mi NW 8.1 mph - N/A   Overcast
2:35 AM 46.4 °F 41.9 °F 46.4 °F 100% 29.73 in 10.0 mi NW 9.2 mph - N/A   Overcast
2:55 AM 46.4 °F 41.1 °F 44.6 °F 93% 29.73 in 10.0 mi NW 11.5 mph - N/A   Overcast
3:15 AM 44.6 °F 39.7 °F 44.6 °F 100% 29.74 in 10.0 mi NW 9.2 mph - N/A   Overcast
3:35 AM 44.6 °F 39.7 °F 42.8 °F 93% 29.75 in 10.0 mi NW 9.2 mph - N/A   Mostly Cloudy
3:55 AM 42.8 °F 38.0 °F 42.8 °F 100% 29.75 in 10.0 mi NW 8.1 mph - N/A   Mostly Cloudy
4:15 AM 44.6 °F 39.2 °F 42.8 °F 93% 29.76 in 10.0 mi NW 10.4 mph - N/A   Mostly Cloudy
4:35 AM 42.8 °F 39.3 °F 42.8 °F 100% 29.76 in 10.0 mi WNW 5.8 mph - N/A   Mostly Cloudy
4:55 AM 42.8 °F 40.1 °F 42.8 °F 100% 29.77 in 7.0 mi WNW 4.6 mph - N/A   Mostly Cloudy
5:15 AM 42.8 °F 38.6 °F 42.8 °F 100% 29.78 in 10.0 mi WNW 6.9 mph - N/A   Scattered Clouds
5:35 AM 41.0 °F 38.0 °F 41.0 °F 100% 29.78 in 7.0 mi West 4.6 mph - N/A   Scattered Clouds
5:45 AM 42.8 °F 38.0 °F 42.8 °F 100% 29.78 in 7.0 mi West 8.1 mph - N/A   Scattered Clouds
6:00 AM 55.4 °F - 48.2 °F 77% 30.05 in 10.0 mi NNW 8.1 mph - N/A   Clear
6:25 AM 42.8 °F 38.0 °F 42.8 °F 100% 29.79 in 10.0 mi West 8.1 mph - N/A   Overcast
6:50 AM 42.8 °F 37.5 °F 42.8 °F 100% 29.80 in 10.0 mi West 9.2 mph - N/A   Mostly Cloudy
7:17 AM 41.0 °F 39.0 °F 41.0 °F 100% 29.81 in 10.0 mi West 3.5 mph - N/A   Scattered Clouds
7:45 AM 41.0 °F 37.1 °F 41.0 °F 100% 29.82 in 10.0 mi West 5.8 mph - N/A   Clear
8:50 AM 46.4 °F 42.9 °F 44.6 °F 93% 29.84 in 10.0 mi West 6.9 mph - N/A   Clear
9:45 AM 48.2 °F - 46.4 °F 93% 29.86 in 10.0 mi West 8.1 mph - N/A   Clear
10:45 AM 53.6 °F - 46.4 °F 77% 29.88 in 10.0 mi WNW 9.2 mph - N/A   Clear
11:45 AM 57.2 °F - 46.4 °F 67% 29.90 in 10.0 mi NW 9.2 mph - N/A   Clear
12:45 PM 57.2 °F - 44.6 °F 63% 29.90 in 10.0 mi WNW 13.8 mph 21.9 mph N/A   Scattered Clouds
1:45 PM 59.0 °F - 42.8 °F 55% 29.90 in 10.0 mi WNW 13.8 mph 19.6 mph N/A   Scattered Clouds
2:50 PM 60.8 °F - 41.0 °F 48% 29.92 in 10.0 mi West 12.7 mph 20.7 mph N/A   Mostly Cloudy
3:53 PM 60.8 °F - 39.2 °F 45% 29.93 in 10.0 mi WNW 11.5 mph 17.3 mph N/A   Clear
4:53 PM 60.8 °F - 39.2 °F 45% 29.95 in 10.0 mi West 9.2 mph - N/A   Clear
6:47 PM 53.6 °F - 41.0 °F 62% 29.98 in 10.0 mi WSW 5.8 mph - N/A   Clear
7:53 PM 51.8 °F - 39.2 °F 62% 30.11 in 10.0 mi WSW 3.5 mph - N/A   Clear
8:53 PM 51.8 °F - 39.2 °F 62% 30.03 in 10.0 mi Calm Calm - N/A   Clear
9:50 PM 46.4 °F - 41.0 °F 81% 30.04 in 10.0 mi Calm Calm - N/A   Clear
10:15 PM 46.4 °F - 41.0 °F 81% 30.05 in 10.0 mi Calm Calm - N/A   Clear
10:35 PM 46.4 °F - 39.2 °F 76% 30.05 in 10.0 mi Calm Calm - N/A   Clear
10:55 PM 42.8 °F - 41.0 °F 93% 30.06 in 10.0 mi Calm Calm - N/A   Clear
11:15 PM 42.8 °F - 41.0 °F 93% 30.06 in 10.0 mi Calm Calm - N/A   Clear
11:35 PM 42.8 °F - 39.2 °F 87% 30.06 in 7.0 mi Calm Calm - N/A   Clear
11:55 PM 39.2 °F - 37.4 °F 93% 30.06 in 7.0 mi Calm Calm - N/A   Clear